Regional Weather Roundup
Issued by NWS

Home | Current Version | Previous Version | Graphics & Text | Print | Product List | Glossary On
Versions: 1 2 3 4 5 6 7 8 9 10 11 12 13 14 15 16 17 18 19 20 21 22 23 24 25 26 27
000
ASUS45 KCYS 290110
RWRWY

WYOMING REGIONAL WEATHER ROUNDUP
NATIONAL WEATHER SERVICE CHEYENNE WY
700 PM MDT SUN AUG 28 2016

NOTE:  "FAIR" INDICATES FEW OR NO CLOUDS BELOW 12,000 FEET
WITH NO SIGNIFICANT WEATHER AND/OR OBSTRUCTIONS TO VISIBILITY.

WYZ001-290200-
YELLOWSTONE NATIONAL PARK

CITY           SKY/WX    TMP DP  RH WIND       PRES   REMARKS
LK YELLOWSTONE   N/A     68  28  22 W5        30.38R
W YELLOWSTONE  NOT AVBL

$$
WYZ002>013-054>058-071-098>099-290200-
NORTHERN WYOMING

CITY           SKY/WX    TMP DP  RH WIND       PRES   REMARKS
JACKSON        SUNNY     79  27  14 S5        30.27
CODY           FAIR      79  34  19 NW5       30.13R
GREYBULL       FAIR      86  27  11 CALM      30.03R
WORLAND        FAIR      83  36  18 NE3       30.05R
SHERIDAN       FAIR      79  48  33 NW6       30.07R
BUFFALO        FAIR      81  33  17 NW14      30.15R
GILLETTE       FAIR      82  35  18 N8        30.08R
HULETT         FAIR      81  37  21 E8        30.08S
NEWCASTLE      FAIR      86  30  13 SE5       30.06R

$$
WYZ014>020-022>026-101>103-290200-
CENTRAL WYOMING

CITY           SKY/WX    TMP DP  RH WIND       PRES   REMARKS
BIG PINEY      FAIR      77  27  15 N12       30.30R
PINEDALE       FAIR      73  27  17 NW13      30.31R
DUBOIS         FAIR      73  25  16 NW16G24   30.29R
LANDER         FAIR      83  31  15 NE7       30.13R
RIVERTON       FAIR      82  31  15 E8        30.14R
CASPER         FAIR      83  29  14 CALM      30.13R
DOUGLAS        FAIR      84  27  12 CALM      30.12R

$$
WYZ021-027>030-104>119-290200-
SOUTHERN WYOMING

CITY           SKY/WX    TMP DP  RH WIND       PRES   REMARKS
EVANSTON       FAIR      76  23  14 NW13      30.32R
FORT BRIDGER   FAIR      78  23  13 NW15G23   30.33R
ROCK SPRINGS   FAIR      79  21  11 NW8       30.24S
DIXON          FAIR      79  27  15 CALM      30.27R
RAWLINS        FAIR      78  18  10 SW5       30.25R
SARATOGA       FAIR      77  27  15 W12       30.28S
LARAMIE        LGT RAIN  70  26  19 N5        30.28R
CHEYENNE       FAIR      75  38  26 S9        30.22R
TORRINGTON     FAIR      81  51  35 SE8       30.06R
PINE BLUFFS    FAIR      70  41  35 SE14G21   30.17S

$$




USA.gov is the U.S. government's official web portal to all federal, state and local government web resources and services.